T 1996 Dec. 12.87841 TT Marsden q 0.0050221 (2000.0) P Q Peri. 78.46236 +0.17309547 -0.98470251 Node 358.05902 -0.96163523 -0.16458896 e 1.0 Incl. 143.86443 +0.21282775 +0.05719650 >From 10 observations 1996 Dec. 11-12.
m1 = 18 + 5 logΔ + 10.0 log r